Regional Weather Roundup
Issued by NWS Northern Indiana

Home | Current Version | Previous Version | Graphics & Text | Print | Product List | Glossary On
Versions: 1 2 3 4 5 6 7 8 9 10 11 12 13 14 15 16 17 18 19 20 21 22 23 24 25 26 27 28 29 30 31 32 33 34 35 36 37 38 39 40 41 42 43 44 45 46 47 48 49 50
000
ASUS43 KIWX 260700
RWRIWX

KIWX WEATHER ROUNDUP
NATIONAL WEATHER SERVICE NORTHERN INDIANA
300 AM EDT SUN APR 26 2015

NOTE: "FAIR" INDICATES FEW OR NO CLOUDS BELOW 12,000 FEET WITH NO
SIGNIFICANT WEATHER AND/OR OBSTRUCTIONS TO VISIBILITY.

* THESE STATIONS ARE NOT UNDER NWS QUALITY CONTROL. THEY ALSO MAY NOT
  REPORT WEATHER SUCH AS PRECIPITATION OR FOG.

INZ001>027-260800-
NORTHERN INDIANA

CITY           SKY/WX    TMP DP  RH WIND       PRES   REMARKS
KNOX*          CLEAR     36  30  80 N6        29.84R
SOUTH BEND     CLEAR     41  30  65 NE8       29.85R
GOSHEN         CLEAR     37  29  72 NE7       29.83S
WARSAW*        PTCLDY    36  32  87 NE3       29.82F
ANGOLA*        CLEAR     37  27  65 NE7       29.83S
FORT WAYNE     MOCLDY    40  30  67 NE12      29.81S
PERU/GRISSOM   CLOUDY    42  33  72 NE10      29.79S

$$
INZ028>050-260800-
CENTRAL INDIANA

CITY           SKY/WX    TMP DP  RH WIND       PRES   REMARKS
LAFAYETTE      CLOUDY    43  32  65 NE10      29.81R
KOKOMO*        MOCLDY    41  32  70 NE9       29.80S
MUNCIE*        CLOUDY    41  31  67 NE14      29.78R
INDIANAPOLIS   CLOUDY    43  29  57 NE15      29.75R

$$
MIZ043>046-050>051-056>058-064>065-071>073-077>080-260800-
SOUTHWEST LOWER MICHIGAN

CITY           SKY/WX    TMP DP  RH WIND       PRES   REMARKS
BATTLE CREEK   CLEAR     37  26  64 NE7       29.86S
BENTON HARBOR  CLEAR     37  28  70 NE3       29.87R
COLDWATER*     CLEAR     37  26  65 N3        29.84S
HILLSDALE*     CLEAR     38  26  60 NE6       29.82S
HOLLAND        CLEAR     41  25  53 NE5       29.90R
GRAND RAPIDS   CLEAR     36  24  62 NE6       29.89R
KALAMAZOO      CLEAR     37  26  64 N5        29.87R
STURGIS*       CLEAR     37  27  65 CALM      29.84S
THREE RIVERS*  FAIR      38  29  69 N3        29.86R

$$
OHZ001>008-015>018-024>025-260800-
NORTHWEST OHIO

CITY           SKY/WX    TMP DP  RH WIND       PRES   REMARKS
DEFIANCE       PTCLDY    39  29  67 NE9       29.82S
FINDLAY        CLOUDY    41  33  73 N13       29.78F
TOLEDO EXPRESS PTCLDY    39  26  59 N7        29.81S
TOLEDO METCALF PTCLDY    42  29  59 NE8       29.82S
LIMA           CLOUDY    40  33  76 N16       29.76F

$$
AND FOR LAKE MICHIGAN COASTAL AND OPEN LAKE BUOY OBSERVATIONS

STATION/POSITION TEMP    WIND        PRES    VSBY  WAVE
                 AIR SEA DIR/SP/G                  HT/PER
                 (F)     (DEG/KT/KT) (MB)    (MI)  (FT/S)
CALUMET HARBOR    41     360/  5/  7   N/A
MICHIGAN CITY     41      20/  6/  7   N/A
BURNS HARBOR      41      30/  5/  6 1011.5S
SAINT JOSEPH      42      10/  3/  4 1012.2R
MICHIGAN CITY     40 45   30/  8/ 12   N/A           2/ 5

$$
&&



USA.gov is the U.S. government's official web portal to all federal, state and local government web resources and services.